GW5579 Weather Reports


time (UTC)temp
C
wind
direction
speed
KPH
gust
KPH
rain 1hr
cm
rain 24hr
cm
rain mn
cm
humidity
%
barometer
mb
20260506122801 21 90 6.4 9.7 0.00 0.00 0.00 54 1007.2
20260506122258 20 84 11.3 14.5 0.00 0.00 0.00 55 1007.0
20260506121756 20 157 1.6 4.8 0.00 0.00 0.00 56 1007.3
20260506121253 20 152 4.8 9.7 0.00 0.00 0.00 55 1007.5
20260506120750 20 141 6.4 9.7 0.00 0.00 0.00 54 1007.9
20260506120248 20 124 3.2 9.7 0.00 0.00 0.00 53 1007.9
20260506115746 21 166 4.8 11.3 0.00 0.00 0.00 54 1007.9
20260506115244 20 164 1.6 6.4 0.00 0.00 0.00 54 1007.9
20260506114741 21 153 6.4 9.7 0.00 0.00 0.00 53 1007.9
20260506114239 20 80 8.0 11.3 0.00 0.00 0.00 54 1008.0
20260506113737 21 65 8.0 11.3 0.00 0.00 0.00 53 1008.1
20260506113234 20 154 1.6 6.4 0.00 0.00 0.00 54 1008.1
20260506112730 20 152 8.0 12.9 0.00 0.00 0.00 53 1008.0
20260506112228 20 165 6.4 6.4 0.00 0.00 0.00 54 1008.0
20260506111725 20 143 3.2 14.5 0.00 0.00 0.00 54 1008.0
20260506111224 21 136 8.0 16.1 0.00 0.00 0.00 53 1008.0
20260506110720 20 138 0.0 6.4 0.00 0.00 0.00 56 1008.1
20260506110218 20 64 4.8 6.4 0.00 0.00 0.00 56 1008.3
20260506105714 20 343 6.4 6.4 0.00 0.00 0.00 57 1008.3
20260506105211 20 111 4.8 6.4 0.00 0.00 0.00 55 1008.4
20260506104709 20 79 3.2 4.8 0.00 0.00 0.00 57 1008.6
20260506104206 20 144 6.4 11.3 0.00 0.00 0.00 57 1008.5
20260506103703 20 147 4.8 11.3 0.00 0.00 0.00 57 1008.5
20260506103200 20 170 4.8 9.7 0.00 0.00 0.00 56 1008.6
20260506102658 20 129 9.7 14.5 0.00 0.00 0.00 57 1008.8
20260506102156 19 70 3.2 6.4 0.00 0.00 0.00 59 1008.8
20260506101652 19 134 6.4 12.9 0.00 0.00 0.00 59 1008.8
20260506101149 18 340 3.2 9.7 0.00 0.00 0.00 61 1008.9
20260506100648 18 62 11.3 14.5 0.00 0.00 0.00 60 1008.7
20260506100145 18 95 6.4 11.3 0.00 0.00 0.00 60 1008.8
20260506095644 18 193 6.4 9.7 0.00 0.00 0.00 61 1008.8
20260506095140 18 143 3.2 12.9 0.00 0.00 0.00 62 1009.0
20260506094637 18 155 8.0 9.7 0.00 0.00 0.00 61 1009.1
20260506094135 17 144 6.4 11.3 0.00 0.00 0.00 62 1009.0
20260506093634 17 56 4.8 11.3 0.00 0.00 0.00 62 1009.2
20260506093130 17 147 6.4 9.7 0.00 0.00 0.00 63 1009.0
20260506092628 17 139 9.7 16.1 0.00 0.00 0.00 62 1009.2
20260506092125 17 123 6.4 11.3 0.00 0.00 0.00 63 1009.2
20260506091623 18 170 6.4 16.1 0.00 0.00 0.00 62 1009.3
20260506091120 18 99 3.2 9.7 0.00 0.00 0.00 61 1009.2
20260506090618 17 61 4.8 9.7 0.00 0.00 0.00 61 1009.2
20260506090114 18 158 1.6 4.8 0.00 0.00 0.00 62 1009.4
20260506085611 17 131 6.4 9.7 0.00 0.00 0.00 62 1009.3
20260506085108 17 102 8.0 11.3 0.00 0.00 0.00 61 1009.3
20260506084604 18 153 3.2 9.7 0.00 0.00 0.00 60 1009.4
20260506084101 17 317 4.8 6.4 0.00 0.00 0.00 61 1009.4
20260506083558 17 150 9.7 11.3 0.00 0.00 0.00 62 1009.4
20260506083055 16 169 3.2 12.9 0.00 0.00 0.00 64 1009.6
20260506082552 16 136 14.5 17.7 0.00 0.00 0.00 63 1009.3
20260506082047 16 141 8.0 11.3 0.00 0.00 0.00 64 1009.7
20260506081546 16 127 19.3 24.1 0.00 0.00 0.00 65 1009.6
20260506081043 16 144 11.3 12.9 0.00 0.00 0.00 63 1009.7
20260506080541 16 103 4.8 17.7 0.00 0.00 0.00 64 1009.7
20260506073524 16 182 1.6 16.1 0.00 0.00 0.00 62 1009.6
20260506073021 16 126 1.6 9.7 0.00 0.00 0.00 62 1009.7
20260506072518 15 145 3.2 9.7 0.00 0.00 0.00 65 1009.7
20260506072016 16 168 6.4 12.9 0.00 0.00 0.00 63 1009.5
20260506071514 15 66 1.6 6.4 0.00 0.00 0.00 65 1009.6
20260506071010 15 23 9.7 17.7 0.00 0.00 0.00 65 1009.7
20260506070508 15 335 11.3 16.1 0.00 0.00 0.00 65 1009.9
20260506062445 14 139 6.4 9.7 0.00 0.00 0.00 68 1010.1
20260506061941 14 149 3.2 6.4 0.00 0.00 0.00 69 1010.2
20260506061437 13 151 3.2 4.8 0.00 0.00 0.00 71 1010.1
20260506060936 13 174 3.2 6.4 0.00 0.00 0.00 73 1010.4
20260506060434 13 133 3.2 9.7 0.00 0.00 0.00 71 1010.3
20260506051405 12 97 3.2 11.3 0.00 0.00 0.00 77 1010.7
20260506050902 11 149 1.6 3.2 0.00 0.00 0.00 79 1010.9
20260506050400 11 137 1.6 4.8 0.00 0.00 0.00 79 1010.7
20260506044850 11 144 0.0 4.8 0.00 0.00 0.00 80 1010.8
20260506044348 11 69 3.2 4.8 0.00 0.00 0.00 80 1010.8
20260506043845 11 159 0.0 3.2 0.00 0.00 0.00 81 1010.8
20260506043342 11 160 1.6 3.2 0.00 0.00 0.00 81 1010.8
20260506042841 11 355 4.8 9.7 0.00 0.00 0.00 82 1010.8
20260506042339 11 353 6.4 12.9 0.00 0.00 0.00 82 1010.8
20260506041838 11 185 3.2 9.7 0.00 0.00 0.00 82 1010.9
20260506041334 11 165 1.6 11.3 0.00 0.00 0.00 84 1010.8
20260506040831 11 113 4.8 6.4 0.00 0.00 0.00 84 1010.8
20260506040329 11 125 6.4 9.7 0.00 0.00 0.00 85 1010.8
20260506035825 10 105 1.6 4.8 0.00 0.00 0.00 86 1010.9
20260506035323 10 47 3.2 6.4 0.00 0.00 0.00 87 1010.8
20260506034820 10 65 1.6 4.8 0.00 0.00 0.00 88 1010.8
20260506034317 10 351 4.8 6.4 0.00 0.00 0.00 89 1010.6
20260506033814 10 145 1.6 6.4 0.00 0.00 0.00 89 1010.7
20260506033311 10 109 3.2 6.4 0.00 0.00 0.00 90 1010.6
20260506032807 9 0 3.2 6.4 0.00 0.00 0.00 90 1010.6
20260506032306 9 347 6.4 11.3 0.00 0.00 0.00 91 1010.5
20260506031801 9 114 1.6 6.4 0.00 0.00 0.00 91 1010.6
20260506031258 9 83 4.8 6.4 0.00 0.00 0.00 91 1010.4
20260506030756 9 354 6.4 9.7 0.00 0.00 0.00 91 1010.5
20260506030254 9 117 4.8 4.8 0.00 0.00 0.00 90 1010.7
20260506025751 9 113 3.2 6.4 0.00 0.00 0.00 90 1010.4
20260506025247 9 192 3.2 9.7 0.00 0.00 0.00 90 1010.4
20260506024744 9 131 3.2 9.7 0.00 0.00 0.00 91 1010.4
20260506024240 9 160 1.6 4.8 0.00 0.00 0.00 90 1010.4
20260506023736 9 54 3.2 3.2 0.00 0.00 0.00 90 1010.4
20260506023234 9 77 3.2 6.4 0.00 0.00 0.00 90 1010.5
20260506022730 9 26 4.8 6.4 0.00 0.00 0.00 91 1010.5
20260506022228 9 143 1.6 6.4 0.00 0.00 0.00 91 1010.4
20260506021726 8 90 0.0 1.6 0.00 0.00 0.00 90 1010.3
20260506021223 9 136 1.6 3.2 0.00 0.00 0.00 89 1010.3
20260506020720 9 226 3.2 3.2 0.00 0.00 0.00 89 1010.1
20260506020218 9 19 4.8 4.8 0.00 0.00 0.00 89 1010.2
20260506015715 9 15 4.8 6.4 0.00 0.00 0.00 89 1010.3
20260506015213 9 142 0.0 3.2 0.00 0.00 0.00 89 1010.1
20260506014709 9 345 3.2 4.8 0.00 0.00 0.00 89 1010.2
20260506014205 8 322 3.2 6.4 0.00 0.00 0.00 89 1010.2
20260506013703 8 82 3.2 4.8 0.00 0.00 0.00 89 1010.2
20260506013200 8 144 1.6 1.6 0.00 0.00 0.00 89 1010.1
20260506012656 8 173 0.0 1.6 0.00 0.00 0.00 88 1010.2
20260506012153 9 126 1.6 1.6 0.00 0.00 0.00 88 1010.3
20260506011651 8 123 1.6 3.2 0.00 0.00 0.00 89 1010.2
20260506011147 9 160 0.0 0.0 0.00 0.00 0.00 87 1010.2
20260506010645 9 137 1.6 1.6 0.00 0.00 0.00 87 1010.2
20260506010142 9 89 3.2 3.2 0.00 0.00 0.00 87 1010.6
20260506005639 9 71 3.2 6.4 0.00 0.00 0.00 88 1010.4
20260506005136 9 165 0.0 0.0 0.00 0.00 0.00 87 1010.4
20260506004632 9 155 0.0 0.0 0.00 0.00 0.00 86 1010.3
20260506004130 9 99 1.6 3.2 0.00 0.00 0.00 86 1010.4
20260506003626 9 147 1.6 1.6 0.00 0.00 0.00 86 1010.3
20260506003122 9 170 0.0 1.6 0.00 0.00 0.00 86 1010.3
20260506002618 9 163 0.0 0.0 0.00 0.00 0.00 85 1010.6
20260506002114 10 159 0.0 0.0 0.00 0.00 0.00 84 1010.6
20260506001610 10 165 0.0 0.0 0.00 0.00 0.00 83 1010.6
20260506001107 10 110 1.6 3.2 0.00 0.00 0.00 84 1010.3
20260506000605 10 134 1.6 1.6 0.00 0.00 0.00 82 1010.4
20260505235600 10 169 0.0 1.6 0.00 0.00 0.00 80 1010.6
20260505235057 10 156 0.0 3.2 0.00 0.00 0.00 81 1010.5
20260505234554 10 142 0.0 3.2 0.00 0.00 0.00 80 1010.5
20260505234050 10 0 6.4 9.7 0.00 0.00 0.00 79 1010.4
20260505233548 11 145 1.6 3.2 0.00 0.00 0.00 79 1010.4
20260505233045 11 35 3.2 4.8 0.00 0.00 0.00 79 1010.4
20260505232543 11 125 1.6 1.6 0.00 0.00 0.00 79 1010.2
20260505232040 11 146 0.0 1.6 0.00 0.00 0.00 78 1010.0
20260505231537 11 106 1.6 3.2 0.00 0.00 0.00 77 1010.2
20260505231036 11 151 0.0 3.2 0.00 0.00 0.00 77 1010.3
20260505230533 11 77 3.2 6.4 0.00 0.00 0.00 76 1010.5
20260505230029 11 33 6.4 6.4 0.00 0.00 0.00 76 1010.5
20260505225526 11 156 1.6 4.8 0.00 0.00 0.00 77 1010.5
20260505225022 11 129 1.6 3.2 0.00 0.00 0.00 76 1010.5
20260505224519 11 129 1.6 1.6 0.00 0.00 0.00 76 1010.6
20260505224016 11 0 3.2 4.8 0.00 0.00 0.00 75 1010.6
20260505223513 12 114 1.6 4.8 0.00 0.00 0.00 75 1010.3
20260505223010 12 130 0.0 3.2 0.00 0.00 0.00 74 1010.5
20260505222506 12 160 1.6 1.6 0.00 0.00 0.00 73 1010.8
20260505222001 12 158 1.6 3.2 0.00 0.00 0.00 73 1010.7
20260505221459 12 203 1.6 3.2 0.00 0.00 0.00 72 1010.7
20260505220956 12 22 4.8 4.8 0.00 0.00 0.00 72 1010.7
20260505220453 12 62 4.8 4.8 0.00 0.00 0.00 71 1010.9
20260505215951 12 78 3.2 6.4 0.00 0.00 0.00 71 1010.9
20260505215449 12 85 1.6 4.8 0.00 0.00 0.00 71 1010.9
20260505214946 12 45 4.8 11.3 0.00 0.00 0.00 70 1010.7
20260505214444 12 15 3.2 6.4 0.00 0.00 0.00 70 1010.7
20260505213941 13 127 1.6 12.9 0.00 0.00 0.00 70 1010.7
20260505213439 13 63 3.2 6.4 0.00 0.00 0.00 72 1010.7
20260505212935 13 342 3.2 11.3 0.00 0.00 0.00 71 1010.5
20260505212432 13 351 3.2 4.8 0.00 0.00 0.00 72 1010.5
20260505211928 13 26 4.8 6.4 0.00 0.00 0.00 74 1010.4
20260505211426 13 281 1.6 4.8 0.00 0.00 0.00 74 1010.4
20260505210922 13 351 8.0 11.3 0.00 0.00 0.00 73 1010.6
20260505210419 13 297 4.8 14.5 0.00 0.00 0.00 74 1010.6
20260505205916 13 57 6.4 6.4 0.00 0.33 0.33 74 1010.7
20260505205414 13 22 6.4 9.7 0.00 0.33 0.33 76 1010.3
20260505204911 13 33 8.0 9.7 0.00 0.33 0.33 77 1010.2
20260505204409 13 37 6.4 12.9 0.00 0.33 0.33 77 1010.3
20260505203906 13 245 3.2 9.7 0.00 0.33 0.33 78 1010.2
20260505203402 13 82 3.2 12.9 0.00 0.33 0.33 78 1010.3
20260505202858 13 358 3.2 9.7 0.00 0.33 0.33 79 1010.4
20260505202355 14 39 6.4 9.7 0.00 0.33 0.33 78 1010.4
20260505201851 14 19 9.7 14.5 0.00 0.33 0.33 78 1010.3
20260505201349 14 77 3.2 9.7 0.00 0.33 0.33 80 1010.3
20260505200847 14 34 8.0 14.5 0.00 0.33 0.33 80 1010.2
20260505200343 14 18 6.4 11.3 0.00 0.33 0.33 81 1010.1
20260505195839 14 18 6.4 9.7 0.00 0.33 0.33 82 1010.1
20260505195336 14 110 3.2 4.8 0.00 0.33 0.33 85 1010.1
20260505194833 14 78 3.2 4.8 0.00 0.33 0.33 84 1010.1
20260505194331 14 145 1.6 3.2 0.00 0.33 0.33 85 1009.9
20260505193826 14 139 1.6 3.2 0.00 0.33 0.33 84 1009.9
20260505193324 15 53 1.6 1.6 0.00 0.33 0.33 84 1010.0
20260505192822 15 153 0.0 3.2 0.00 0.33 0.33 83 1009.9
20260505192320 15 188 1.6 3.2 0.00 0.33 0.33 84 1009.8
20260505191817 14 336 4.8 4.8 0.00 0.33 0.33 84 1009.8
20260505191316 14 143 0.0 1.6 0.00 0.33 0.33 85 1009.7
20260505190812 15 156 0.0 3.2 0.00 0.33 0.33 86 1009.6
20260505190307 15 155 0.0 3.2 0.00 0.33 0.33 85 1009.8
20260505185803 15 76 1.6 1.6 0.00 0.33 0.33 86 1009.7
20260505185300 15 153 0.0 1.6 0.00 0.33 0.33 86 1009.6
20260505184756 15 347 3.2 6.4 0.00 0.33 0.33 86 1009.8
20260505184253 15 99 3.2 6.4 0.00 0.33 0.33 86 1009.6
20260505183750 15 17 8.0 11.3 0.00 0.33 0.33 86 1009.6
20260505183248 15 110 1.6 4.8 0.00 0.33 0.33 86 1009.6
20260505182744 15 23 4.8 9.7 0.00 0.33 0.33 86 1009.6
20260505182241 15 19 8.0 9.7 0.00 0.33 0.33 87 1010.1
20260505181737 15 152 1.6 4.8 0.00 0.33 0.33 88 1009.9
20260505181235 15 50 3.2 4.8 0.00 0.33 0.33 88 1009.8
20260505180731 15 61 3.2 6.4 0.00 0.33 0.33 87 1009.4
20260505180228 15 254 3.2 6.4 0.00 0.33 0.33 87 1009.5
20260505175724 15 23 6.4 6.4 0.00 0.33 0.33 86 1009.2
20260505175221 16 5 3.2 3.2 0.00 0.33 0.33 86 1009.3
20260505174717 16 326 3.2 4.8 0.00 0.33 0.33 86 1009.5
20260505174214 16 10 3.2 4.8 0.00 0.33 0.33 85 1009.6
20260505173710 16 161 1.6 1.6 0.00 0.33 0.33 85 1009.3
20260505173207 16 157 0.0 0.0 0.00 0.33 0.33 84 1009.4
20260505172704 16 164 0.0 1.6 0.00 0.33 0.33 84 1009.5
20260505172201 16 24 3.2 4.8 0.00 0.33 0.33 84 1009.4
20260505171701 16 148 1.6 3.2 0.00 0.33 0.33 85 1009.5
20260505171158 16 116 1.6 3.2 0.00 0.33 0.33 85 1009.5
20260505170655 16 144 1.6 1.6 0.00 0.33 0.33 84 1009.7
20260505170152 16 168 0.0 0.0 0.00 0.33 0.33 85 1009.5
20260505165652 16 148 1.6 1.6 0.00 0.33 0.33 85 1009.4
20260505165148 16 140 0.0 1.6 0.00 0.33 0.33 84 1009.9
20260505164644 16 108 3.2 3.2 0.00 0.33 0.33 84 1009.7
20260505164141 16 156 0.0 1.6 0.00 0.33 0.33 83 1009.7
20260505163639 16 146 0.0 1.6 0.00 0.33 0.33 82 1009.9
20260505163137 16 103 1.6 1.6 0.00 0.33 0.33 81 1010.1
20260505162634 16 195 1.6 1.6 0.00 0.33 0.33 79 1009.7
20260505162132 16 162 0.0 0.0 0.00 0.33 0.33 79 1009.8
20260505161629 17 48 3.2 3.2 0.00 0.33 0.33 77 1010.0
20260505161126 17 149 0.0 1.6 0.00 0.33 0.33 77 1010.1
20260505160624 17 155 0.0 1.6 0.00 0.33 0.33 77 1010.1
20260505160121 17 157 0.0 0.0 0.00 0.33 0.33 76 1010.1
20260505153100 18 164 1.6 3.2 0.00 0.33 0.33 71 1010.5
20260505152557 18 148 1.6 3.2 0.00 0.33 0.33 70 1010.4
20260505152053 18 48 4.8 6.4 0.00 0.33 0.33 69 1010.5
20260505151548 18 58 8.0 12.9 0.00 0.33 0.33 67 1010.4
20260505151046 18 37 9.7 14.5 0.00 0.33 0.33 67 1010.4
20260505150542 18 23 6.4 12.9 0.00 0.33 0.33 65 1010.4
20260505140507 20 306 1.6 4.8 0.00 0.33 0.33 62 1010.2
20260505124920 22 184 1.6 4.8 0.00 0.33 0.33 53 1010.8
20260505124417 22 190 1.6 9.7 0.00 0.33 0.33 52 1010.7
20260505123913 22 168 6.4 6.4 0.00 0.33 0.33 53 1010.8
20260505123410 22 173 1.6 6.4 0.00 0.33 0.33 54 1010.8